Regional Weather Roundup
Issued by NWS

Home | Current Version | Previous Version | Text Only | Print | Product List | Glossary On
Versions: 1 2 3 4 5 6 7 8 9 10 11 12 13 14 15 16 17 18 19 20 21 22 23 24 25 26 27 28 29 30 31 32 33 34 35 36 37 38 39 40 41 42 43 44 45 46 47 48 49
000
ASUS42 KTBW 052317
RWRFL
FLORIDA REGIONAL WEATHER ROUNDUP
NATIONAL WEATHER SERVICE TAMPA BAY RUSKIN FL
700 PM EDT SUN JUL 05 2015

NOTE: "FAIR" INDICATES FEW OR NO CLOUDS BELOW 12,000 FEET WITH NO
SIGNIFICANT WEATHER AND/OR OBSTRUCTIONS TO VISIBILITY.


FLZ001>010-012>015-112-114-115-060000-
PANHANDLE FLORIDA

CITY           SKY/WX    TMP DP  RH WIND       PRES   REMARKS
PENSACOLA      CLOUDY    74  66  76 VRB3      30.12F
PENSACOLA NAS  CLOUDY    74  66  76 VRB3      30.12F
MILTON NAS     CLOUDY    75  66  73 W5        30.11
CRESTVIEW      CLOUDY    78  71  79 W9        30.13F
DUKE FIELD     FAIR      79  71  77 W6        30.11F
VALPARAISO     MOSUNNY   80  69  69 NW5       30.12F
MARY ESTHER    PTSUNNY   79  70  74 NW8       30.12S
TRI COUNTY     FAIR      79  72  79 CALM      30.12F
PANAMA CITY    FAIR      82  71  69 W14       30.11S
TYNDALL AFB    PTSUNNY   82  71  70 W8        30.12R
APALACHICOLA   CLOUDY    84  68  58 CALM      30.11S

STATION/POSITION SKY/WX   TEMP    WIND        PRES    WAVE   SWELL
                          AIR SEA DIR/SP/G            HT/PER HT/PER
                          (F)     (DEG/KT/KT) (MB)    (FT/S) (FT/S)
30.1N   87.6W              78 84  360/ 12/ 14 1020.4R   2/ 5
29.2N   88.2W              81 85  210/  6/ 10 1019.9F   1/ 5   2/ 5
28.8N   86.0W              82 85  350/  6/  8 1020.0F   2/ 4   2/ 4
PANAMA CITY BEAC           78 82  290/  4/  6 1019.8R
CAPE SAN BLAS    NOT AVBL
TOWER C                    78      70/  3/  3 1019.9R
28.5N   84.5W              81 86   70/ 12/ 14 1019.0F   3/ 5   2/ 9

$$
FLZ011-016>038-118-127-128-134-139-239-060000-
NORTH FLORIDA

CITY           SKY/WX    TMP DP  RH WIND       PRES   REMARKS
MARIANNA       PTSUNNY   77  72  84 W5        30.11F
TALLAHASSEE    CLOUDY    77  70  79 NW3       30.12F
PERRY            N/A    N/A N/A N/A MISG        N/A
CROSS CITY       N/A     77  72  84 E6        30.13R
LAKE CITY      FAIR      70  70 100 SE7       30.16S
GAINESVILLE    CLOUDY    72  69  90 E7        30.17F
MAYPORT NAS    TSTM      72  70  93 CALM      30.19F FOG
JACKSONVILLE   TSTM      72  71  97 SE8       30.18F
JAX NAS        CLOUDY    78  70  76 E6        30.20R THUNDER
JAX CRAIG      LGT RAIN  73  70  90 CALM      30.19F
JAX CECIL      SUNNY     73  70  88 VRB5      30.17F
FERNANDINA BEA MOCLDY    75  72  88 E7        30.18R
ST AUGUSTINE   TSTM      71  70  96 CALM      30.19F FOG

STATION/POSITION SKY/WX   TEMP    WIND        PRES    WAVE   SWELL
                          AIR SEA DIR/SP/G            HT/PER HT/PER
                          (F)     (DEG/KT/KT) (MB)    (FT/S) (FT/S)
SHELL POINT                75     280/  5/  8   N/A
KEATON BEACH               82     270/  2/  3 1020.7R
CEDAR KEY                  80      80/  9/ 10 1020.9R
FERNANDINA                 73 84   80/  2/  7 1021.2R
30.7N   81.3W                 78                N/A     2/ 4
MAYPORT                    72 80   90/  5/  6 1022.7R
31.4N   80.9W              76 79  290/  8/ 10 1021.4F   2/ 9   2/ 9
ST AUGUSTINE               71 75   CALM  /  1 1023.0F

$$
FLZ040-043>046-052-053-057-058-063-144-060000-
INTERIOR CENTRAL FLORIDA

CITY           SKY/WX    TMP DP  RH WIND       PRES   REMARKS
OCALA          MOSUNNY   75  70  83 NE6       30.18R
THE VILLAGES     N/A    N/A N/A N/A NE8       30.09R
LEESBURG       HVY RAIN  75  70  84 E8        30.18S
SANFORD        TSTM      74  70  87 S9        30.19R
ORLANDO EXEC   TSTM      73  72  96 CALM      30.19F FOG
ORLANDO INTL   TSTM      73  73 100 N14       30.19F FOG
KISSIMMEE      TSTM      73  72  94 N9G17     30.19R
WINTER HAVEN   CLOUDY    76  70  82 N10       30.15S
LAKELAND       LGT RAIN  73  70  88 N6        30.12F
OKEECHOBEE     PTSUNNY   86  75  70 E9        30.10F HX  95

$$
FLZ041-047-054-059-064-141-147-060000-
EAST CENTRAL FLORIDA

CITY           SKY/WX    TMP DP  RH WIND       PRES   REMARKS
ORMOND BEACH   SUNNY     75  68  78 CALM      30.16F THUNDER
DAYTONA BEACH  TSTM      75  71  87 CALM      30.17F FOG
DELAND           N/A     75  72  88 SW6       30.19S
NEW SMYRNA BEA MOSUNNY   73  70  88 W8        30.17R
JFK SPACE CTR  CLOUDY    79  71  74 N5        30.15R
TITUSVILLE     CLOUDY    79  68  69 W17       30.17
CAPE CANAVERAL CLOUDY    84  76  76 S3        30.14R
PATRICK AFB    CLOUDY    83  78  83 SE5       30.13R
MELBOURNE      CLOUDY    84  76  76 SE7       30.13R
VERO BEACH     CLOUDY    85  74  69 SE13      30.11S
FT PIERCE      CLOUDY    85  76  74 SE13      30.11S
STUART         PTSUNNY   82  73  74 SE8       30.12

STATION/POSITION SKY/WX   TEMP    WIND        PRES    WAVE   SWELL
                          AIR SEA DIR/SP/G            HT/PER HT/PER
                          (F)     (DEG/KT/KT) (MB)    (FT/S) (FT/S)
28.5N   80.2W              83 83  140/  8/ 10 1020.5F
28.9N   78.5W              81 84  100/  4/  6 1020.9F
TRIDENT PIER               83 80  130/  5/  8 1020.5F
28.4N   80.5W                 80                N/A     2/ 9
27.5N   80.2W                 84                N/A     2/ 9

$$
FLZ050-056-061-142-242-148-248-149-249-151-251-155-255-
160-260-060000-
WEST CENTRAL FLORIDA

CITY           SKY/WX    TMP DP  RH WIND       PRES   REMARKS
CRYSTAL RIVER  FAIR      77  70  78 NE3       30.15F
INVERNESS      FAIR     N/A N/A N/A NE7       30.16F
BROOKSVILLE    CLOUDY    73  70  90 NE6       30.16R
ZEPHYRHILLS    FAIR      72  72 100 CALM      30.15S THUNDER
CLEARWATER     CLOUDY    75  75 100 NW21      30.12S
TAMPA INTL     CLOUDY    81  66  60 NE7G21    30.13S
TAMPA EXEC     HVY RAIN  73  70  88 CALM      30.14F
PLANT CITY     CLOUDY    73  72  94 N7        30.16F
MACDILL AFB    CLOUDY    82  74  78 NE13      30.11S THUNDER
PETER O KNIGHT LGT RAIN  81  70  69 NE7       30.12F VSB 1
ST PETERSBURG  CLOUDY    88  74  63 N15       30.08F HX  96
SARASOTA       MOSUNNY   90  72  55 W15       30.09S HX  97
VENICE         FAIR      88  75  66 NW10      30.13R HX  97

STATION/POSITION SKY/WX   TEMP    WIND        PRES    WAVE   SWELL
                          AIR SEA DIR/SP/G            HT/PER HT/PER
                          (F)     (DEG/KT/KT) (MB)    (FT/S) (FT/S)
CEDAR KEY                  80      80/  9/ 10 1020.9R
28.5N   84.5W              81 86   70/ 12/ 14 1019.0F   3/ 5   2/ 9
27.3N   84.2W                 87                N/A     4/ 4
CLEARWATER BEACH NOT AVBL
MIDDLE TAMPA BAY                  310/ 14/ 16 1020.1R
VENICE                     87 90  280/ 12/ 14 1019.3R

$$
FLZ066-069-070-075>078-162-262-165-265-060000-
SOUTHWEST FLORIDA AND KEYS

CITY           SKY/WX    TMP DP  RH WIND       PRES   REMARKS
PUNTA GORDA    CLOUDY    87  76  69 W12       30.11R HX  97
FT MYERS       PTSUNNY   87  77  72 W14       30.07S THUNDER HX  99
SOUTHWEST INTL MOSUNNY   87  75  67 W7        30.08S THUNDER HX  96
NAPLES         MOSUNNY   88  76  67 W9        30.08S HX  99
MARCO ISLAND   CLOUDY    90  75  62 SW9       30.09S HX 100
MARATHON       MOSUNNY   87  77  72 E9G16     30.09S HX  99
KEY WEST NAS   MOSUNNY   87  77  72 E15       30.09S HX  99
KEY WEST INTL  MOSUNNY   87  79  76 E13       30.09S HX 101

STATION/POSITION SKY/WX   TEMP    WIND        PRES    WAVE   SWELL
                          AIR SEA DIR/SP/G            HT/PER HT/PER
                          (F)     (DEG/KT/KT) (MB)    (FT/S) (FT/S)
VENICE                     87 90  280/ 12/ 14 1019.3R
NAPLES                        89              1019.8F
26.0N   85.6W              85 87   50/ 14/ 16 1019.1F   2/ 9   2/ 9
DRY TORTUGAS               86     130/ 10/ 12 1018.9F
NW FL BAY                  87     130/ 13/ 16 1018.9
SAND KEY                   85     100/ 16/ 18 1018.7S
SOMBRERO KEY               85     110/ 16/ 17 1019.7R
LONG KEY                   85 89  120/ 14/ 16 1019.8S
MOLASSES REEF              85 86  110/ 10/ 11 1019.2F

$$
FLZ067-068-071>074-168-172>174-060000-
SOUTHEAST FLORIDA

CITY           SKY/WX    TMP DP  RH WIND       PRES   REMARKS
W PALM BEACH   PTSUNNY   87  74  64 SE14      30.12R HX  95
FT LAUDER-EXEC MOSUNNY   87  73  62 SE13      30.10S
FT LAUDERDALE  MOSUNNY   87  76  69 SE15      30.09F HX  97
POMPANO BEACH  SUNNY     87  74  64 SE13      30.11R HX  95
PEMBROKE PINES SUNNY     88  73  61 E13       30.11F HX  95
OPA LOCKA      SUNNY     87  73  62 SE14      30.10F
MIAMI          MOSUNNY   87  73  62 E14G20    30.11S
WEST KENDALL   SUNNY     86  73  65 SE13      30.11R
HOMESTEAD      SUNNY     87  75  66 E8        30.11R HX  96

STATION/POSITION SKY/WX   TEMP    WIND        PRES    WAVE   SWELL
                          AIR SEA DIR/SP/G            HT/PER HT/PER
                          (F)     (DEG/KT/KT) (MB)    (FT/S) (FT/S)
PORT EVERGLADES            87     130/  8/ 12 1019.5F
VIRGINIA KEY               85 89  120/ 10/ 12 1019.3F
LAKE WORTH                 85 87  140/ 12/ 14 1019.2F
SETTLEMENT POINT           85     150/  9/ 11 1020.5F

$$



USA.gov is the U.S. government's official web portal to all federal, state and local government web resources and services.